Time,TemperatureF,DewpointF,PressureIn,WindDirection,WindDirectionDegrees,WindSpeedMPH,WindSpeedGustMPH,Humidity,HourlyPrecipIn,Conditions,Clouds,dailyrainin,SoftwareType,DateUTC
2013-06-15 00:00:00,58.3,55.4,29.74,WNW,298,1.0,16.0,90,0.00,,,0.05,Wunderground v.1.15,2013-06-15 04:00:00,
2013-06-15 00:05:00,58.2,55.3,29.74,WNW,298,1.0,16.0,90,0.00,,,0.00,Wunderground v.1.15,2013-06-15 04:05:00,
2013-06-15 00:10:00,58.1,54.9,29.74,WNW,298,1.0,1.0,89,0.00,,,0.00,Wunderground v.1.15,2013-06-15 04:10:00,
2013-06-15 00:15:00,58.0,54.8,29.74,WNW,298,0.0,16.0,89,0.00,,,0.00,Wunderground v.1.15,2013-06-15 04:15:00,
2013-06-15 00:20:00,57.9,54.7,29.74,WNW,298,0.0,16.0,89,0.00,,,0.00,Wunderground v.1.15,2013-06-15 04:20:00,
2013-06-15 00:25:00,57.8,54.3,29.74,WNW,298,0.0,16.0,88,0.00,,,0.00,Wunderground v.1.15,2013-06-15 04:25:00,
2013-06-15 00:30:00,57.7,54.5,29.74,WNW,298,0.0,16.0,89,0.00,,,0.00,Wunderground v.1.15,2013-06-15 04:30:00,
2013-06-15 00:35:00,57.6,54.7,29.74,WNW,298,1.0,16.0,90,0.00,,,0.00,Wunderground v.1.15,2013-06-15 04:35:00,
2013-06-15 00:40:00,57.4,54.5,29.75,WNW,298,1.0,1.0,90,0.00,,,0.00,Wunderground v.1.15,2013-06-15 04:40:00,
2013-06-15 00:45:00,57.2,54.3,29.75,WNW,298,1.0,16.0,90,0.00,,,0.00,Wunderground v.1.15,2013-06-15 04:45:00,
2013-06-15 00:55:00,56.8,54.2,29.75,WNW,298,0.0,16.0,91,0.00,,,0.01,Wunderground v.1.15,2013-06-15 04:55:00,
2013-06-15 01:00:00,56.6,54.0,29.75,WNW,298,0.0,16.0,91,0.00,,,0.01,Wunderground v.1.15,2013-06-15 05:00:00,
2013-06-15 01:05:00,56.2,53.3,29.75,WNW,298,0.0,16.0,90,0.00,,,0.01,Wunderground v.1.15,2013-06-15 05:05:00,
2013-06-15 01:10:00,55.9,53.6,29.75,WNW,298,0.0,16.0,92,0.00,,,0.01,Wunderground v.1.15,2013-06-15 05:10:00,
2013-06-15 01:15:00,55.6,53.0,29.75,WNW,298,0.0,16.0,91,0.00,,,0.01,Wunderground v.1.15,2013-06-15 05:15:00,
2013-06-15 01:20:00,55.0,52.4,29.75,WNW,298,0.0,16.0,91,0.00,,,0.01,Wunderground v.1.15,2013-06-15 05:20:00,
2013-06-15 01:30:00,54.5,52.2,29.76,WNW,298,0.0,16.0,92,0.00,,,0.01,Wunderground v.1.15,2013-06-15 05:30:00,
2013-06-15 01:35:00,54.3,52.3,29.76,WNW,298,0.0,16.0,93,0.00,,,0.01,Wunderground v.1.15,2013-06-15 05:35:00,
2013-06-15 01:40:00,54.3,52.3,29.76,WNW,298,0.0,16.0,93,0.00,,,0.01,Wunderground v.1.15,2013-06-15 05:40:00,
2013-06-15 01:45:00,54.6,53.2,29.76,WNW,298,1.0,16.0,95,0.00,,,0.01,Wunderground v.1.15,2013-06-15 05:45:00,
2013-06-15 01:50:00,54.4,52.4,29.76,WNW,298,1.0,16.0,93,0.00,,,0.01,Wunderground v.1.15,2013-06-15 05:50:00,
2013-06-15 02:00:00,54.8,53.1,29.75,WNW,298,1.0,1.0,94,0.00,,,0.01,Wunderground v.1.15,2013-06-15 06:00:00,
2013-06-15 02:10:00,53.7,51.1,29.76,WNW,298,0.0,16.0,91,0.00,,,0.01,Wunderground v.1.15,2013-06-15 06:10:00,
2013-06-15 02:15:00,53.2,51.2,29.76,WNW,298,0.0,16.0,93,0.00,,,0.01,Wunderground v.1.15,2013-06-15 06:15:00,
2013-06-15 02:20:00,53.0,51.0,29.76,WNW,298,1.0,16.0,93,0.00,,,0.01,Wunderground v.1.15,2013-06-15 06:20:00,
2013-06-15 02:30:00,52.4,50.7,29.76,WNW,298,1.0,16.0,94,0.00,,,0.01,Wunderground v.1.15,2013-06-15 06:30:00,
2013-06-15 02:35:00,52.5,50.8,29.76,WNW,298,1.0,16.0,94,0.00,,,0.01,Wunderground v.1.15,2013-06-15 06:35:00,
2013-06-15 02:40:00,52.2,50.5,29.76,WNW,298,1.0,1.0,94,0.00,,,0.01,Wunderground v.1.15,2013-06-15 06:40:00,
2013-06-15 02:45:00,51.8,50.1,29.76,WNW,298,1.0,16.0,94,0.00,,,0.01,Wunderground v.1.15,2013-06-15 06:45:00,
2013-06-15 02:50:00,51.6,49.9,29.76,WNW,298,1.0,16.0,94,0.00,,,0.01,Wunderground v.1.15,2013-06-15 06:50:00,
2013-06-15 02:55:00,51.5,49.8,29.76,WNW,298,1.0,16.0,94,0.00,,,0.01,Wunderground v.1.15,2013-06-15 06:55:00,
2013-06-15 03:05:00,50.7,49.3,29.76,WNW,298,1.0,16.0,95,0.00,,,0.01,Wunderground v.1.15,2013-06-15 07:05:00,
2013-06-15 03:10:00,50.6,49.2,29.76,WNW,298,1.0,16.0,95,0.00,,,0.01,Wunderground v.1.15,2013-06-15 07:10:00,
2013-06-15 03:15:00,50.4,49.0,29.76,WNW,298,1.0,16.0,95,0.00,,,0.01,Wunderground v.1.15,2013-06-15 07:15:00,
2013-06-15 03:20:00,50.3,49.2,29.76,WNW,298,1.0,16.0,96,0.00,,,0.01,Wunderground v.1.15,2013-06-15 07:20:00,
2013-06-15 03:25:00,50.3,49.2,29.77,WNW,298,1.0,16.0,96,0.00,,,0.01,Wunderground v.1.15,2013-06-15 07:25:00,
2013-06-15 03:35:00,50.1,49.0,29.77,WNW,298,0.0,16.0,96,0.00,,,0.01,Wunderground v.1.15,2013-06-15 07:35:00,
2013-06-15 03:40:00,49.7,48.6,29.77,WNW,298,1.0,16.0,96,0.00,,,0.01,Wunderground v.1.15,2013-06-15 07:40:00,
2013-06-15 03:45:00,49.6,48.5,29.77,WNW,298,1.0,16.0,96,0.00,,,0.01,Wunderground v.1.15,2013-06-15 07:45:00,
2013-06-15 03:50:00,49.5,48.7,29.77,WNW,298,1.0,1.0,97,0.00,,,0.01,Wunderground v.1.15,2013-06-15 07:50:00,
2013-06-15 03:55:00,49.5,48.7,29.77,WNW,298,0.0,16.0,97,0.00,,,0.01,Wunderground v.1.15,2013-06-15 07:55:00,
2013-06-15 04:05:00,49.6,48.8,29.77,WNW,298,0.0,16.0,97,0.00,,,0.01,Wunderground v.1.15,2013-06-15 08:05:00,
2013-06-15 04:10:00,49.4,48.6,29.77,WNW,298,0.0,16.0,97,0.00,,,0.01,Wunderground v.1.15,2013-06-15 08:10:00,
2013-06-15 04:15:00,49.1,48.0,29.77,WNW,298,0.0,16.0,96,0.00,,,0.01,Wunderground v.1.15,2013-06-15 08:15:00,
2013-06-15 04:20:00,48.8,48.0,29.77,WNW,298,0.0,16.0,97,0.00,,,0.01,Wunderground v.1.15,2013-06-15 08:20:00,
2013-06-15 04:25:00,48.6,47.8,29.77,WNW,298,0.0,16.0,97,0.00,,,0.01,Wunderground v.1.15,2013-06-15 08:25:00,
2013-06-15 04:35:00,48.4,47.6,29.78,WNW,298,0.0,16.0,97,0.00,,,0.01,Wunderground v.1.15,2013-06-15 08:35:00,
2013-06-15 04:40:00,48.1,47.3,29.77,WNW,298,0.0,16.0,97,0.00,,,0.01,Wunderground v.1.15,2013-06-15 08:40:00,
2013-06-15 04:45:00,47.9,47.1,29.77,WNW,298,0.0,16.0,97,0.00,,,0.01,Wunderground v.1.15,2013-06-15 08:45:00,
2013-06-15 04:50:00,47.6,46.8,29.77,WNW,298,0.0,16.0,97,0.00,,,0.01,Wunderground v.1.15,2013-06-15 08:50:00,
2013-06-15 04:55:00,47.6,46.8,29.77,WNW,298,0.0,16.0,97,0.00,,,0.01,Wunderground v.1.15,2013-06-15 08:55:00,
2013-06-15 05:00:00,47.5,46.7,29.77,WNW,298,0.0,16.0,97,0.00,,,0.01,Wunderground v.1.15,2013-06-15 09:00:00,
2013-06-15 05:10:00,47.2,46.4,29.77,WNW,298,0.0,16.0,97,0.00,,,0.01,Wunderground v.1.15,2013-06-15 09:10:00,
2013-06-15 05:15:00,47.0,46.2,29.77,WNW,298,0.0,16.0,97,0.00,,,0.01,Wunderground v.1.15,2013-06-15 09:15:00,
2013-06-15 05:20:00,47.0,46.5,29.77,WNW,298,0.0,16.0,98,0.00,,,0.01,Wunderground v.1.15,2013-06-15 09:20:00,
2013-06-15 05:25:00,47.0,46.5,29.77,WNW,298,0.0,16.0,98,0.00,,,0.01,Wunderground v.1.15,2013-06-15 09:25:00,
2013-06-15 05:30:00,46.9,46.4,29.78,WNW,298,0.0,16.0,98,0.00,,,0.01,Wunderground v.1.15,2013-06-15 09:30:00,
2013-06-15 05:40:00,46.8,46.3,29.79,WNW,298,0.0,16.0,98,0.00,,,0.01,Wunderground v.1.15,2013-06-15 09:40:00,
2013-06-15 05:45:00,46.7,46.2,29.78,WNW,298,0.0,16.0,98,0.00,,,0.01,Wunderground v.1.15,2013-06-15 09:45:00,
2013-06-15 05:50:00,46.7,46.2,29.78,WNW,298,0.0,16.0,98,0.00,,,0.01,Wunderground v.1.15,2013-06-15 09:50:00,
2013-06-15 05:55:00,46.7,46.2,29.78,WNW,298,0.0,16.0,98,0.00,,,0.01,Wunderground v.1.15,2013-06-15 09:55:00,
2013-06-15 06:00:00,46.8,46.3,29.79,WNW,298,0.0,16.0,98,0.00,,,0.01,Wunderground v.1.15,2013-06-15 10:00:00,
2013-06-15 06:10:00,46.9,46.4,29.79,WNW,298,0.0,16.0,98,0.00,,,0.01,Wunderground v.1.15,2013-06-15 10:10:00,
2013-06-15 06:15:00,46.9,46.4,29.79,WNW,298,0.0,16.0,98,0.00,,,0.01,Wunderground v.1.15,2013-06-15 10:15:00,
2013-06-15 06:20:00,46.9,46.4,29.79,WNW,298,0.0,16.0,98,0.00,,,0.01,Wunderground v.1.15,2013-06-15 10:20:00,
2013-06-15 06:25:00,47.0,46.5,29.79,WNW,298,0.0,16.0,98,0.00,,,0.01,Wunderground v.1.15,2013-06-15 10:25:00,
2013-06-15 06:30:00,47.4,47.1,29.80,WNW,298,0.0,16.0,99,0.00,,,0.01,Wunderground v.1.15,2013-06-15 10:30:00,
2013-06-15 06:40:00,48.1,47.8,29.80,WNW,298,1.0,1.0,99,0.00,,,0.01,Wunderground v.1.15,2013-06-15 10:40:00,
2013-06-15 06:45:00,48.4,48.1,29.80,WNW,298,1.0,16.0,99,0.00,,,0.01,Wunderground v.1.15,2013-06-15 10:45:00,
2013-06-15 06:50:00,48.6,48.3,29.80,WNW,298,1.0,1.0,99,0.00,,,0.01,Wunderground v.1.15,2013-06-15 10:50:00,
2013-06-15 06:55:00,48.8,48.5,29.80,WNW,298,1.0,2.0,99,0.00,,,0.01,Wunderground v.1.15,2013-06-15 10:55:00,
2013-06-15 07:00:00,49.0,48.7,29.80,WNW,298,1.0,16.0,99,0.00,,,0.01,Wunderground v.1.15,2013-06-15 11:00:00,
2013-06-15 07:05:00,49.2,48.9,29.80,WNW,298,2.0,16.0,99,0.00,,,0.01,Wunderground v.1.15,2013-06-15 11:05:00,
2013-06-15 07:15:00,49.5,49.2,29.81,WNW,298,1.0,16.0,99,0.00,,,0.01,Wunderground v.1.15,2013-06-15 11:15:00,
2013-06-15 07:20:00,49.7,49.4,29.81,WNW,298,0.0,16.0,99,0.00,,,0.01,Wunderground v.1.15,2013-06-15 11:20:00,
2013-06-15 07:25:00,50.0,49.7,29.81,WNW,298,0.0,16.0,99,0.00,,,0.01,Wunderground v.1.15,2013-06-15 11:25:00,
2013-06-15 07:30:00,50.3,50.0,29.81,WNW,298,0.0,16.0,99,0.00,,,0.01,Wunderground v.1.15,2013-06-15 11:30:00,
2013-06-15 07:35:00,50.8,50.5,29.81,WNW,298,0.0,16.0,99,0.00,,,0.01,Wunderground v.1.15,2013-06-15 11:35:00,
2013-06-15 07:45:00,52.0,51.7,29.82,WNW,298,0.0,16.0,99,0.00,,,0.01,Wunderground v.1.15,2013-06-15 11:45:00,
2013-06-15 07:50:00,52.5,52.2,29.82,WNW,298,0.0,16.0,99,0.00,,,0.01,Wunderground v.1.15,2013-06-15 11:50:00,
2013-06-15 07:55:00,52.9,52.6,29.82,WNW,298,1.0,16.0,99,0.00,,,0.01,Wunderground v.1.15,2013-06-15 11:55:00,
2013-06-15 08:00:00,53.3,53.0,29.82,WNW,298,1.0,16.0,99,0.00,,,0.01,Wunderground v.1.15,2013-06-15 12:00:00,
2013-06-15 08:05:00,53.9,53.3,29.83,WNW,298,1.0,16.0,98,0.00,,,0.02,Wunderground v.1.15,2013-06-15 12:05:00,
2013-06-15 08:15:00,55.1,54.3,29.83,WNW,298,0.0,16.0,97,0.00,,,0.02,Wunderground v.1.15,2013-06-15 12:15:00,
2013-06-15 08:20:00,55.5,54.4,29.83,WNW,298,0.0,16.0,96,0.00,,,0.02,Wunderground v.1.15,2013-06-15 12:20:00,
2013-06-15 08:25:00,55.9,54.5,29.83,WNW,298,0.0,16.0,95,0.00,,,0.02,Wunderground v.1.15,2013-06-15 12:25:00,
2013-06-15 08:30:00,56.8,55.4,29.83,WNW,298,0.0,16.0,95,0.00,,,0.02,Wunderground v.1.15,2013-06-15 12:30:00,
2013-06-15 08:35:00,57.7,55.7,29.84,WNW,298,0.0,16.0,93,0.00,,,0.02,Wunderground v.1.15,2013-06-15 12:35:00,
2013-06-15 08:40:00,58.5,55.6,29.83,WNW,298,0.0,16.0,90,0.00,,,0.02,Wunderground v.1.15,2013-06-15 12:40:00,
2013-06-15 08:45:00,59.2,55.3,29.83,WNW,298,0.0,16.0,87,0.00,,,0.02,Wunderground v.1.15,2013-06-15 12:45:00,
2013-06-15 08:50:00,60.3,55.4,29.83,WNW,298,1.0,16.0,84,0.00,,,0.02,Wunderground v.1.15,2013-06-15 12:50:00,
2013-06-15 08:55:00,61.0,55.8,29.83,WNW,298,1.0,16.0,83,0.00,,,0.02,Wunderground v.1.15,2013-06-15 12:55:00,
2013-06-15 09:00:00,61.6,55.0,29.83,WNW,298,1.0,16.0,79,0.00,,,0.02,Wunderground v.1.15,2013-06-15 13:00:00,
2013-06-15 09:05:00,61.9,54.2,29.83,WNW,298,2.0,16.0,76,0.00,,,0.02,Wunderground v.1.15,2013-06-15 13:05:00,
2013-06-15 09:10:00,62.1,53.7,29.83,WNW,298,1.0,1.0,74,0.00,,,0.02,Wunderground v.1.15,2013-06-15 13:10:00,
2013-06-15 09:20:00,62.6,52.7,29.82,WNW,298,0.0,16.0,70,0.00,,,0.02,Wunderground v.1.15,2013-06-15 13:20:00,
2013-06-15 09:25:00,62.4,52.9,29.82,WNW,298,0.0,16.0,71,0.00,,,0.02,Wunderground v.1.15,2013-06-15 13:25:00,
2013-06-15 09:30:00,62.7,53.2,29.82,WNW,298,0.0,16.0,71,0.00,,,0.02,Wunderground v.1.15,2013-06-15 13:30:00,
2013-06-15 09:35:00,63.2,54.0,29.82,WNW,298,0.0,16.0,72,0.00,,,0.02,Wunderground v.1.15,2013-06-15 13:35:00,
2013-06-15 09:40:00,63.8,53.8,29.82,WNW,298,0.0,16.0,70,0.00,,,0.02,Wunderground v.1.15,2013-06-15 13:40:00,
2013-06-15 09:45:00,63.8,53.0,29.82,WNW,298,0.0,16.0,68,0.00,,,0.02,Wunderground v.1.15,2013-06-15 13:45:00,
2013-06-15 09:50:00,64.4,54.4,29.82,WNW,298,0.0,16.0,70,0.00,,,0.02,Wunderground v.1.15,2013-06-15 13:50:00,
2013-06-15 09:55:00,64.9,54.9,29.83,WNW,298,1.0,16.0,70,0.00,,,0.02,Wunderground v.1.15,2013-06-15 13:55:00,
2013-06-15 10:00:00,65.4,54.6,29.82,WNW,298,0.0,16.0,68,0.00,,,0.02,Wunderground v.1.15,2013-06-15 14:00:00,
2013-06-15 10:05:00,66.1,54.4,29.82,WNW,298,1.0,16.0,66,0.00,,,0.02,Wunderground v.1.15,2013-06-15 14:05:00,
2013-06-15 10:10:00,65.9,54.6,29.82,WNW,298,2.0,2.0,67,0.00,,,0.02,Wunderground v.1.15,2013-06-15 14:10:00,
2013-06-15 10:20:00,65.3,51.5,29.82,WNW,303,4.0,16.0,61,0.00,,,0.02,Wunderground v.1.15,2013-06-15 14:20:00,
2013-06-15 10:25:00,65.1,50.9,29.82,West,267,5.0,16.0,60,0.00,,,0.02,Wunderground v.1.15,2013-06-15 14:25:00,
2013-06-15 10:30:00,65.0,51.2,29.82,WNW,303,5.0,16.0,61,0.00,,,0.02,Wunderground v.1.15,2013-06-15 14:30:00,
2013-06-15 10:35:00,65.3,51.5,29.83,WSW,254,6.0,16.0,61,0.00,,,0.02,Wunderground v.1.15,2013-06-15 14:35:00,
2013-06-15 10:40:00,65.6,51.3,29.83,West,281,6.0,16.0,60,0.00,,,0.02,Wunderground v.1.15,2013-06-15 14:40:00,
2013-06-15 10:45:00,65.3,51.9,29.83,WNW,293,7.0,16.0,62,0.00,,,0.02,Wunderground v.1.15,2013-06-15 14:45:00,
2013-06-15 10:50:00,65.5,51.2,29.83,West,275,6.0,6.0,60,0.00,,,0.02,Wunderground v.1.15,2013-06-15 14:50:00,
2013-06-15 10:55:00,65.6,51.3,29.83,West,267,5.0,7.0,60,0.00,,,0.02,Wunderground v.1.15,2013-06-15 14:55:00,
2013-06-15 11:00:00,65.8,51.1,29.83,WNW,289,6.0,6.0,59,0.00,,,0.02,Wunderground v.1.15,2013-06-15 15:00:00,
2013-06-15 11:05:00,65.7,51.9,29.82,West,278,5.0,7.0,61,0.00,,,0.02,Wunderground v.1.15,2013-06-15 15:05:00,
2013-06-15 11:10:00,65.9,48.8,29.82,NNW,339,6.0,6.0,54,0.00,,,0.02,Wunderground v.1.15,2013-06-15 15:10:00,
2013-06-15 11:15:00,66.4,48.7,29.82,NNE,22,8.0,11.0,53,0.00,,,0.02,Wunderground v.1.15,2013-06-15 15:15:00,
2013-06-15 11:25:00,66.6,49.9,29.82,NW,312,9.0,9.0,55,0.00,,,0.02,Wunderground v.1.15,2013-06-15 15:25:00,
2013-06-15 11:30:00,67.1,49.9,29.82,NW,321,7.0,16.0,54,0.00,,,0.02,Wunderground v.1.15,2013-06-15 15:30:00,
2013-06-15 11:35:00,67.5,49.8,29.82,NW,314,6.0,16.0,53,0.00,,,0.02,Wunderground v.1.15,2013-06-15 15:35:00,
2013-06-15 11:40:00,68.0,50.2,29.83,WNW,290,6.0,6.0,53,0.00,,,0.02,Wunderground v.1.15,2013-06-15 15:40:00,
2013-06-15 11:45:00,68.0,50.7,29.82,WNW,292,6.0,12.0,54,0.00,,,0.02,Wunderground v.1.15,2013-06-15 15:45:00,
2013-06-15 11:55:00,67.9,49.6,29.83,NW,314,8.0,16.0,52,0.00,,,0.02,Wunderground v.1.15,2013-06-15 15:55:00,
2013-06-15 12:00:00,68.4,51.6,29.83,North,355,6.0,16.0,55,0.00,,,0.02,Wunderground v.1.15,2013-06-15 16:00:00,
2013-06-15 12:05:00,68.8,51.0,29.83,WNW,284,5.0,16.0,53,0.00,,,0.02,Wunderground v.1.15,2013-06-15 16:05:00,
2013-06-15 12:10:00,68.5,50.2,29.83,WNW,284,6.0,16.0,52,0.00,,,0.02,Wunderground v.1.15,2013-06-15 16:10:00,
2013-06-15 12:15:00,68.5,49.1,29.83,West,279,7.0,16.0,50,0.00,,,0.02,Wunderground v.1.15,2013-06-15 16:15:00,
2013-06-15 12:25:00,69.0,51.2,29.83,NW,321,7.0,16.0,53,0.00,,,0.02,Wunderground v.1.15,2013-06-15 16:25:00,
2013-06-15 12:30:00,69.3,50.4,29.83,WNW,297,7.0,7.0,51,0.00,,,0.02,Wunderground v.1.15,2013-06-15 16:30:00,
2013-06-15 12:35:00,69.7,51.3,29.83,WNW,293,7.0,16.0,52,0.00,,,0.02,Wunderground v.1.15,2013-06-15 16:35:00,
2013-06-15 12:40:00,69.0,49.6,29.83,NNW,334,8.0,16.0,50,0.00,,,0.02,Wunderground v.1.15,2013-06-15 16:40:00,
2013-06-15 12:45:00,68.6,49.2,29.83,WNW,287,11.0,16.0,50,0.00,,,0.02,Wunderground v.1.15,2013-06-15 16:45:00,
2013-06-15 12:55:00,69.2,50.3,29.82,North,350,7.0,16.0,51,0.00,,,0.02,Wunderground v.1.15,2013-06-15 16:55:00,
2013-06-15 13:00:00,69.7,50.8,29.82,WNW,289,5.0,16.0,51,0.00,,,0.02,Wunderground v.1.15,2013-06-15 17:00:00,
2013-06-15 13:05:00,70.0,49.4,29.82,West,268,6.0,16.0,48,0.00,,,0.02,Wunderground v.1.15,2013-06-15 17:05:00,
2013-06-15 13:10:00,68.8,49.4,29.81,West,274,7.0,7.0,50,0.00,,,0.02,Wunderground v.1.15,2013-06-15 17:10:00,
2013-06-15 13:15:00,68.9,48.9,29.81,NW,323,8.0,15.0,49,0.00,,,0.02,Wunderground v.1.15,2013-06-15 17:15:00,
2013-06-15 13:20:00,68.8,50.5,29.81,West,273,9.0,9.0,52,0.00,,,0.02,Wunderground v.1.15,2013-06-15 17:20:00,
2013-06-15 13:30:00,69.2,49.8,29.81,West,267,9.0,16.0,50,0.00,,,0.03,Wunderground v.1.15,2013-06-15 17:30:00,
2013-06-15 13:35:00,69.3,50.9,29.80,WNW,298,9.0,16.0,52,0.00,,,0.03,Wunderground v.1.15,2013-06-15 17:35:00,
2013-06-15 13:40:00,69.2,49.8,29.81,West,280,8.0,16.0,50,0.00,,,0.03,Wunderground v.1.15,2013-06-15 17:40:00,
2013-06-15 13:45:00,69.5,49.5,29.80,West,277,8.0,17.0,49,0.00,,,0.03,Wunderground v.1.15,2013-06-15 17:45:00,
2013-06-15 13:50:00,70.4,48.6,29.81,West,272,11.0,11.0,46,0.00,,,0.03,Wunderground v.1.15,2013-06-15 17:50:00,
2013-06-15 14:00:00,70.9,49.1,29.80,WNW,289,7.0,16.0,46,0.00,,,0.03,Wunderground v.1.15,2013-06-15 18:00:00,
2013-06-15 14:05:00,70.7,51.7,29.80,West,277,8.0,16.0,51,0.00,,,0.03,Wunderground v.1.15,2013-06-15 18:05:00,
2013-06-15 14:10:00,70.5,49.3,29.80,NW,311,9.0,9.0,47,0.00,,,0.03,Wunderground v.1.15,2013-06-15 18:10:00,
2013-06-15 14:15:00,70.4,50.3,29.80,West,272,10.0,10.0,49,0.00,,,0.03,Wunderground v.1.15,2013-06-15 18:15:00,
2013-06-15 14:20:00,70.1,50.0,29.80,WNW,300,9.0,9.0,49,0.00,,,0.03,Wunderground v.1.15,2013-06-15 18:20:00,
2013-06-15 14:30:00,70.4,50.3,29.79,WNW,294,9.0,9.0,49,0.00,,,0.03,Wunderground v.1.15,2013-06-15 18:30:00,
2013-06-15 14:35:00,70.5,49.9,29.79,NNW,341,9.0,16.0,48,0.00,,,0.03,Wunderground v.1.15,2013-06-15 18:35:00,
2013-06-15 14:40:00,70.9,50.8,29.79,WNW,303,7.0,7.0,49,0.00,,,0.03,Wunderground v.1.15,2013-06-15 18:40:00,
2013-06-15 14:45:00,70.5,49.3,29.80,West,269,7.0,16.0,47,0.00,,,0.03,Wunderground v.1.15,2013-06-15 18:45:00,
2013-06-15 14:50:00,70.1,50.0,29.79,WSW,256,8.0,16.0,49,0.00,,,0.03,Wunderground v.1.15,2013-06-15 18:50:00,
2013-06-15 14:55:00,69.9,48.7,29.79,WNW,298,8.0,16.0,47,0.00,,,0.03,Wunderground v.1.15,2013-06-15 18:55:00,
2013-06-15 15:00:00,70.4,51.9,29.78,NNE,27,8.0,8.0,52,0.00,,,0.03,Wunderground v.1.15,2013-06-15 19:00:00,
2013-06-15 15:05:00,70.7,50.0,29.78,West,279,8.0,9.0,48,0.00,,,0.03,Wunderground v.1.15,2013-06-15 19:05:00,
2013-06-15 15:10:00,70.0,50.5,29.78,ENE,78,10.0,10.0,50,0.00,,,0.03,Wunderground v.1.15,2013-06-15 19:10:00,
2013-06-15 15:15:00,70.7,52.7,29.78,WSW,257,7.0,16.0,53,0.00,,,0.03,Wunderground v.1.15,2013-06-15 19:15:00,
2013-06-15 15:20:00,70.8,50.7,29.78,WNW,299,5.0,16.0,49,0.00,,,0.03,Wunderground v.1.15,2013-06-15 19:20:00,
2013-06-15 15:25:00,71.0,52.5,29.77,West,281,7.0,16.0,52,0.00,,,0.03,Wunderground v.1.15,2013-06-15 19:25:00,
2013-06-15 15:35:00,70.3,49.7,29.77,ENE,65,8.0,16.0,48,0.00,,,0.03,Wunderground v.1.15,2013-06-15 19:35:00,
2013-06-15 15:40:00,70.3,51.3,29.77,North,355,9.0,9.0,51,0.00,,,0.03,Wunderground v.1.15,2013-06-15 19:40:00,
2013-06-15 15:45:00,71.1,52.0,29.77,North,10,7.0,16.0,51,0.00,,,0.03,Wunderground v.1.15,2013-06-15 19:45:00,
2013-06-15 15:50:00,70.9,49.7,29.77,West,274,7.0,16.0,47,0.00,,,0.03,Wunderground v.1.15,2013-06-15 19:50:00,
2013-06-15 15:55:00,70.4,49.2,29.77,North,355,9.0,16.0,47,0.00,,,0.03,Wunderground v.1.15,2013-06-15 19:55:00,
2013-06-15 16:00:00,70.4,48.6,29.78,WSW,252,10.0,10.0,46,0.00,,,0.03,Wunderground v.1.15,2013-06-15 20:00:00,
2013-06-15 16:05:00,70.5,50.4,29.78,NW,311,9.0,16.0,49,0.00,,,0.03,Wunderground v.1.15,2013-06-15 20:05:00,
2013-06-15 16:10:00,70.6,49.4,29.77,West,281,9.0,9.0,47,0.00,,,0.03,Wunderground v.1.15,2013-06-15 20:10:00,
2013-06-15 16:15:00,70.7,50.6,29.77,WNW,297,9.0,16.0,49,0.00,,,0.03,Wunderground v.1.15,2013-06-15 20:15:00,
2013-06-15 16:20:00,70.9,51.3,29.77,WNW,294,7.0,16.0,50,0.00,,,0.03,Wunderground v.1.15,2013-06-15 20:20:00,
2013-06-15 16:25:00,70.3,48.5,29.77,West,280,9.0,16.0,46,0.00,,,0.03,Wunderground v.1.15,2013-06-15 20:25:00,
2013-06-15 16:35:00,71.2,51.6,29.77,West,277,6.0,16.0,50,0.00,,,0.03,Wunderground v.1.15,2013-06-15 20:35:00,
2013-06-15 16:40:00,70.9,51.9,29.77,WNW,294,8.0,16.0,51,0.00,,,0.03,Wunderground v.1.15,2013-06-15 20:40:00,
2013-06-15 16:45:00,70.5,50.4,29.77,NE,51,10.0,16.0,49,0.00,,,0.03,Wunderground v.1.15,2013-06-15 20:45:00,
2013-06-15 16:50:00,70.8,51.2,29.77,WNW,284,9.0,9.0,50,0.00,,,0.03,Wunderground v.1.15,2013-06-15 20:50:00,
2013-06-15 16:55:00,71.0,51.4,29.77,West,281,9.0,12.0,50,0.00,,,0.03,Wunderground v.1.15,2013-06-15 20:55:00,
2013-06-15 17:00:00,70.3,51.3,29.76,WNW,296,10.0,16.0,51,0.00,,,0.03,Wunderground v.1.15,2013-06-15 21:00:00,
2013-06-15 17:05:00,70.0,51.6,29.76,West,279,10.0,16.0,52,0.00,,,0.03,Wunderground v.1.15,2013-06-15 21:05:00,
2013-06-15 17:10:00,70.8,52.8,29.76,WNW,298,6.0,16.0,53,0.00,,,0.03,Wunderground v.1.15,2013-06-15 21:10:00,
2013-06-15 17:15:00,70.2,51.2,29.76,WNW,292,7.0,16.0,51,0.00,,,0.03,Wunderground v.1.15,2013-06-15 21:15:00,
2013-06-15 17:20:00,70.6,52.6,29.76,North,355,8.0,8.0,53,0.00,,,0.03,Wunderground v.1.15,2013-06-15 21:20:00,
2013-06-15 17:25:00,70.5,52.0,29.76,NW,319,7.0,9.0,52,0.00,,,0.03,Wunderground v.1.15,2013-06-15 21:25:00,
2013-06-15 17:30:00,71.0,52.0,29.76,SE,131,6.0,6.0,51,0.00,,,0.03,Wunderground v.1.15,2013-06-15 21:30:00,
2013-06-15 17:40:00,69.4,50.5,29.75,NNW,329,8.0,8.0,51,0.00,,,0.03,Wunderground v.1.15,2013-06-15 21:40:00,
2013-06-15 17:45:00,69.5,51.6,29.76,WNW,299,9.0,9.0,53,0.00,,,0.03,Wunderground v.1.15,2013-06-15 21:45:00,
2013-06-15 17:50:00,69.5,51.1,29.76,WNW,294,8.0,16.0,52,0.00,,,0.03,Wunderground v.1.15,2013-06-15 21:50:00,
2013-06-15 17:55:00,69.6,51.7,29.76,WNW,292,7.0,16.0,53,0.00,,,0.03,Wunderground v.1.15,2013-06-15 21:55:00,
2013-06-15 18:00:00,69.5,52.6,29.76,NW,305,8.0,16.0,55,0.00,,,0.03,Wunderground v.1.15,2013-06-15 22:00:00,
2013-06-15 18:05:00,69.2,53.3,29.76,NE,36,9.0,16.0,57,0.00,,,0.03,Wunderground v.1.15,2013-06-15 22:05:00,
2013-06-15 18:10:00,69.5,52.1,29.76,NW,308,8.0,8.0,54,0.00,,,0.03,Wunderground v.1.15,2013-06-15 22:10:00,
2013-06-15 18:15:00,69.4,52.5,29.76,WNW,298,6.0,16.0,55,0.00,,,0.03,Wunderground v.1.15,2013-06-15 22:15:00,
2013-06-15 18:20:00,69.3,51.9,29.76,NNW,329,5.0,5.0,54,0.00,,,0.03,Wunderground v.1.15,2013-06-15 22:20:00,
2013-06-15 18:25:00,69.4,52.0,29.76,North,349,4.0,16.0,54,0.00,,,0.03,Wunderground v.1.15,2013-06-15 22:25:00,
2013-06-15 18:30:00,69.2,50.3,29.76,WNW,299,4.0,16.0,51,0.00,,,0.03,Wunderground v.1.15,2013-06-15 22:30:00,
2013-06-15 18:40:00,68.8,50.5,29.76,NNE,17,5.0,5.0,52,0.00,,,0.03,Wunderground v.1.15,2013-06-15 22:40:00,
2013-06-15 18:45:00,68.4,49.6,29.76,ENE,62,5.0,7.0,51,0.00,,,0.03,Wunderground v.1.15,2013-06-15 22:45:00,
2013-06-15 18:50:00,68.1,49.8,29.76,NW,325,6.0,16.0,52,0.00,,,0.04,Wunderground v.1.15,2013-06-15 22:50:00,
2013-06-15 18:55:00,68.1,50.8,29.77,WNW,295,6.0,16.0,54,0.00,,,0.04,Wunderground v.1.15,2013-06-15 22:55:00,
2013-06-15 19:00:00,68.1,49.8,29.77,West,278,4.0,16.0,52,0.00,,,0.04,Wunderground v.1.15,2013-06-15 23:00:00,
2013-06-15 19:05:00,67.9,50.1,29.77,WNW,286,4.0,16.0,53,0.00,,,0.04,Wunderground v.1.15,2013-06-15 23:05:00,
2013-06-15 19:10:00,67.7,50.9,29.77,NW,304,5.0,5.0,55,0.00,,,0.04,Wunderground v.1.15,2013-06-15 23:10:00,
2013-06-15 19:15:00,67.7,50.5,29.77,NW,311,4.0,8.0,54,0.00,,,0.04,Wunderground v.1.15,2013-06-15 23:15:00,
2013-06-15 19:20:00,67.5,49.8,29.77,NW,311,3.0,3.0,53,0.00,,,0.04,Wunderground v.1.15,2013-06-15 23:20:00,
2013-06-15 19:25:00,67.2,49.5,29.77,WNW,302,3.0,16.0,53,0.00,,,0.04,Wunderground v.1.15,2013-06-15 23:25:00,
2013-06-15 19:30:00,67.0,50.3,29.77,WNW,299,3.0,16.0,55,0.00,,,0.04,Wunderground v.1.15,2013-06-15 23:30:00,
2013-06-15 19:35:00,66.7,50.0,29.77,NW,320,3.0,16.0,55,0.00,,,0.04,Wunderground v.1.15,2013-06-15 23:35:00,
2013-06-15 19:45:00,65.7,49.1,29.77,WNW,296,4.0,16.0,55,0.00,,,0.04,Wunderground v.1.15,2013-06-15 23:45:00,
2013-06-15 19:50:00,65.4,49.8,29.77,WNW,295,4.0,4.0,57,0.00,,,0.04,Wunderground v.1.15,2013-06-15 23:50:00,
2013-06-15 19:55:00,65.4,49.8,29.77,WNW,295,3.0,16.0,57,0.00,,,0.04,Wunderground v.1.15,2013-06-15 23:55:00,
2013-06-15 20:00:00,64.9,49.8,29.78,WNW,297,3.0,3.0,58,0.00,,,0.04,Wunderground v.1.15,2013-06-16 00:00:00,
2013-06-15 20:05:00,64.5,49.4,29.78,WNW,297,3.0,16.0,58,0.00,,,0.04,Wunderground v.1.15,2013-06-16 00:05:00,
2013-06-15 20:10:00,64.2,50.0,29.78,WNW,297,3.0,3.0,60,0.00,,,0.04,Wunderground v.1.15,2013-06-16 00:10:00,
2013-06-15 20:15:00,63.9,50.2,29.78,WNW,297,1.0,16.0,61,0.00,,,0.04,Wunderground v.1.15,2013-06-16 00:15:00,
2013-06-15 20:20:00,63.5,49.8,29.78,WNW,297,1.0,16.0,61,0.00,,,0.04,Wunderground v.1.15,2013-06-16 00:20:00,
2013-06-15 20:25:00,63.1,49.4,29.77,WNW,297,1.0,16.0,61,0.00,,,0.04,Wunderground v.1.15,2013-06-16 00:25:00,
2013-06-15 20:30:00,62.9,49.2,29.77,WNW,297,1.0,1.0,61,0.00,,,0.04,Wunderground v.1.15,2013-06-16 00:30:00,
2013-06-15 20:35:00,62.6,49.4,29.77,WNW,297,0.0,16.0,62,0.00,,,0.04,Wunderground v.1.15,2013-06-16 00:35:00,
2013-06-15 20:45:00,61.8,50.7,29.77,WNW,297,0.0,16.0,67,0.00,,,0.04,Wunderground v.1.15,2013-06-16 00:45:00,
2013-06-15 20:50:00,61.3,50.6,29.78,WNW,297,0.0,16.0,68,0.00,,,0.04,Wunderground v.1.15,2013-06-16 00:50:00,
2013-06-15 20:55:00,60.8,50.2,29.78,WNW,297,0.0,16.0,68,0.00,,,0.04,Wunderground v.1.15,2013-06-16 00:55:00,
2013-06-15 21:00:00,60.3,50.1,29.78,WNW,297,0.0,16.0,69,0.00,,,0.04,Wunderground v.1.15,2013-06-16 01:00:00,
2013-06-15 21:05:00,59.8,50.4,29.78,WNW,297,0.0,16.0,71,0.00,,,0.04,Wunderground v.1.15,2013-06-16 01:05:00,
2013-06-15 21:10:00,59.2,50.2,29.79,WNW,297,0.0,16.0,72,0.00,,,0.04,Wunderground v.1.15,2013-06-16 01:10:00,
2013-06-15 21:15:00,58.6,50.7,29.79,WNW,297,0.0,16.0,75,0.00,,,0.04,Wunderground v.1.15,2013-06-16 01:15:00,
2013-06-15 21:20:00,58.2,50.3,29.79,WNW,297,0.0,16.0,75,0.00,,,0.04,Wunderground v.1.15,2013-06-16 01:20:00,
2013-06-15 21:25:00,58.0,49.8,29.79,WNW,297,0.0,16.0,74,0.00,,,0.04,Wunderground v.1.15,2013-06-16 01:25:00,
2013-06-15 21:30:00,57.8,49.9,29.79,WNW,297,0.0,16.0,75,0.00,,,0.04,Wunderground v.1.15,2013-06-16 01:30:00,
2013-06-15 21:35:00,57.8,49.6,29.79,WNW,297,0.0,16.0,74,0.00,,,0.04,Wunderground v.1.15,2013-06-16 01:35:00,
2013-06-15 21:40:00,57.7,50.2,29.80,WNW,297,0.0,16.0,76,0.00,,,0.04,Wunderground v.1.15,2013-06-16 01:40:00,
2013-06-15 21:50:00,56.9,50.5,29.80,WNW,297,0.0,16.0,79,0.00,,,0.04,Wunderground v.1.15,2013-06-16 01:50:00,
2013-06-15 21:55:00,56.1,49.7,29.80,WNW,297,0.0,16.0,79,0.00,,,0.04,Wunderground v.1.15,2013-06-16 01:55:00,
2013-06-15 22:00:00,55.7,50.3,29.80,WNW,297,1.0,16.0,82,0.00,,,0.04,Wunderground v.1.15,2013-06-16 02:00:00,
2013-06-15 22:05:00,55.3,50.5,29.80,WNW,297,0.0,16.0,84,0.00,,,0.04,Wunderground v.1.15,2013-06-16 02:05:00,
2013-06-15 22:10:00,55.0,50.9,29.80,WNW,297,0.0,16.0,86,0.00,,,0.04,Wunderground v.1.15,2013-06-16 02:10:00,
2013-06-15 22:20:00,54.2,50.4,29.80,WNW,297,0.0,16.0,87,0.00,,,0.04,Wunderground v.1.15,2013-06-16 02:20:00,
2013-06-15 22:25:00,53.8,50.0,29.80,WNW,297,0.0,16.0,87,0.00,,,0.04,Wunderground v.1.15,2013-06-16 02:25:00,
2013-06-15 22:30:00,53.5,50.0,29.80,WNW,297,0.0,16.0,88,0.00,,,0.04,Wunderground v.1.15,2013-06-16 02:30:00,
2013-06-15 22:35:00,53.3,49.8,29.80,WNW,297,0.0,16.0,88,0.00,,,0.04,Wunderground v.1.15,2013-06-16 02:35:00,
2013-06-15 22:40:00,53.1,49.9,29.80,WNW,297,1.0,16.0,89,0.00,,,0.04,Wunderground v.1.15,2013-06-16 02:40:00,
2013-06-15 22:50:00,52.8,49.9,29.79,WNW,297,0.0,16.0,90,0.00,,,0.04,Wunderground v.1.15,2013-06-16 02:50:00,
2013-06-15 22:55:00,52.7,49.8,29.79,WNW,297,0.0,16.0,90,0.00,,,0.04,Wunderground v.1.15,2013-06-16 02:55:00,
2013-06-15 23:00:00,52.6,50.0,29.79,WNW,297,0.0,16.0,91,0.00,,,0.04,Wunderground v.1.15,2013-06-16 03:00:00,
2013-06-15 23:05:00,52.4,49.8,29.80,WNW,297,0.0,16.0,91,0.00,,,0.04,Wunderground v.1.15,2013-06-16 03:05:00,
2013-06-15 23:10:00,52.1,49.6,29.80,WNW,297,0.0,16.0,91,0.00,,,0.04,Wunderground v.1.15,2013-06-16 03:10:00,
2013-06-15 23:15:00,51.9,49.4,29.80,WNW,297,0.0,16.0,91,0.00,,,0.04,Wunderground v.1.15,2013-06-16 03:15:00,
2013-06-15 23:25:00,51.7,49.2,29.80,WNW,297,0.0,16.0,91,0.00,,,0.04,Wunderground v.1.15,2013-06-16 03:25:00,
2013-06-15 23:30:00,51.6,49.4,29.80,WNW,297,0.0,16.0,92,0.00,,,0.04,Wunderground v.1.15,2013-06-16 03:30:00,
2013-06-15 23:35:00,51.5,49.3,29.80,WNW,297,0.0,16.0,92,0.00,,,0.04,Wunderground v.1.15,2013-06-16 03:35:00,
2013-06-15 23:40:00,51.4,49.2,29.79,WNW,297,0.0,16.0,92,0.00,,,0.04,Wunderground v.1.15,2013-06-16 03:40:00,
2013-06-15 23:45:00,51.2,49.0,29.80,WNW,297,1.0,16.0,92,0.00,,,0.04,Wunderground v.1.15,2013-06-16 03:45:00,
2013-06-15 23:55:00,50.9,48.7,29.80,WNW,297,1.0,16.0,92,0.00,,,0.04,Wunderground v.1.15,2013-06-16 03:55:00,